OBJECT AX, 68461

Orbit data source: Space-Track

You're viewing an Uncataloged Satellite

Recently launched and/or uncataloged satellites may have evolving metadata. Metadata may include but not limited to: Owner, Maufacturer, Bus, Motor, and Mission.

OBJECT AX, 68461 is a satellite in SSO that was launched on Mon, 30 Mar 2026 UTC via an FALCON 9 launch vehicle from the Air Force Western Test Range (AFWTR). Unknown objects in Earth's orbit typically refer to objects detected orbiting the Earth but have not yet been identified or cataloged. These objects could be anything from previously untracked satellites, spent rocket stages, debris from satellite collisions, or even natural meteoroids temporarily captured by Earth's gravity.

Loading next visibility...
Identifier
68461, 2026-067AX
Orbit
SSO
Country
Flag of TBDTBD
Related business
None
Manufacturer
Unknown
Mission
Operational spacecraft
Bus & Motor
Unknown
Mass
Unknown
Launch date (UTC)
2026-03-30 (1 month ago)
Launch vehicle
FALCON 9
Launch site
Air Force Western Test Range (AFWTR)
Object type
Unknown
Shape & HBR
Unknown shape, 1.1 m
Radar Cross Section
RCS unknown

Expand to show TLE details & history
Last TLE update: 13 hours ago

TLE from 13 hours ago
0 OBJECT AX
1 68461U 26067AX  26127.15673418  .00006377  00000-0  32035-3 0  9998
2 68461  97.4534  86.2025 0003366 177.3809 182.7443 15.17617726  5710
Epoch: 2026-05-07T03:45Z
TLE epoch observation values (Epoch: 2026-05-07T03:45:41.833Z)
Latitude
Longitude
164.77128°
Altitude
518.446 km
Speed
7.603 km/s
True Right ascension
05h 44m 48s
True Declination
0° 00' 00"
Sunlit
Object was in daylight at epoch
Visualization orbit readout
Latitude
Unknown
Longitude
Unknown
Altitude
Unknown
Speed
Unknown
Apparent Right ascension
Unknown
Apparent Declination
Unknown
Sunlit
N/A
Visualization observer readout
Local Sidereal Time
01:02:31
Azimuth
Unknown
Elevation
Unknown
Doppler factor
Unknown
Orbital elements
Apogee altitude
512.332 km
Perigee altitude
507.695 km
Semi-major axis
6,888.151 km
Eccentricity
0.00034
Inclination
97.4534°
RAAN
86.2025°
Arg. of periapsis
177.3809°
True anomaly
182.74245°
Mean anomaly
182.7443°
Eccentric anomaly
182.74338°
Mean motion
3.79655 °/min
Orbital period
94.82 mins
BSTAR
0.00032035
Loading maneuver chart data...
Computing Atmospheric mass density...
Loading historical data...
Loading historical data...
Loading historical data...
Loading historical data...
Loading historical data...
Loading historical data...
Loading historical data...

Documentation

Showing up to 5 results
|